FW0868 Weather Reports


time (UTC)temp
F
wind
direction
speed
knots
gust
knots
rain 1hr
in
rain 24hr
in
rain mn
in
humidity
%
barometer
mb
20260505061005 56 178 0.9 4.3 0.00 0.00 0.00 87 1011.4
20260505055004 56 173 0.9 5.2 0.00 0.00 0.00 86 1011.3
20260505053004 57 184 0.9 4.3 0.00 0.00 0.00 85 1011.3
20260505052004 57 190 0.9 4.3 0.00 0.00 0.00 85 1011.2
20260505051004 57 185 0.9 3.5 0.00 0.00 0.00 85 1011.3
20260505041004 60 178 2.6 8.7 0.00 0.00 0.00 81 1010.1
20260505040005 61 176 2.6 8.7 0.00 0.00 0.00 80 1010.2
20260505035006 61 170 3.5 7.8 0.00 0.00 0.00 79 1009.9
20260505034004 62 181 1.7 7.0 0.00 0.00 0.00 77 1009.7
20260505033005 63 194 0.9 5.2 0.00 0.00 0.00 76 1009.4
20260505032004 64 176 1.7 6.1 0.00 0.00 0.00 75 1009.4
20260505031004 65 175 2.6 5.2 0.00 0.00 0.00 74 1009.3
20260505025006 66 178 2.6 7.8 0.00 0.00 0.00 72 1009.2
20260505023005 68 191 1.7 5.2 0.00 0.00 0.00 69 1009.1
20260505022004 69 178 2.6 8.7 0.00 0.00 0.00 68 1009.2
20260505021004 69 186 2.6 7.0 0.00 0.00 0.00 68 1009.0
20260505020005 70 178 2.6 7.0 0.00 0.00 0.00 65 1009.0
20260505015005 71 184 1.7 6.1 0.00 0.00 0.00 63 1008.8
20260505014004 72 179 2.6 6.1 0.00 0.00 0.00 62 1008.8
20260505012004 73 175 3.5 7.0 0.00 0.00 0.00 60 1008.8
20260505011005 74 177 2.6 6.1 0.00 0.00 0.00 61 1008.9
20260505010004 75 177 2.6 5.2 0.00 0.00 0.00 59 1009.0
20260505005005 76 172 3.5 7.0 0.00 0.00 0.00 59 1009.0
20260505004004 76 170 2.6 6.1 0.00 0.00 0.00 60 1009.0
20260505003004 77 183 1.7 6.1 0.00 0.00 0.00 61 1008.8
20260505002005 76 169 3.5 9.6 0.00 0.00 0.00 61 1008.8
20260505001004 76 175 3.5 8.7 0.00 0.00 0.00 62 1008.9
20260505000005 76 173 3.5 8.7 0.00 0.00 0.00 60 1009.0
20260504235004 77 184 1.7 6.1 0.00 0.00 0.00 58 1009.0
20260504233005 77 185 2.6 5.2 0.00 0.00 0.00 59 1008.8
20260504231004 77 167 3.5 7.8 0.00 0.00 0.00 59 1008.9
20260504230004 77 155 2.6 6.1 0.00 0.00 0.00 60 1009.1
20260504225004 77 179 1.7 5.2 0.00 0.00 0.00 59 1009.3
20260504222004 76 166 2.6 5.2 0.00 0.00 0.00 62 1009.4
20260504221004 76 159 3.5 7.0 0.00 0.00 0.00 63 1009.6
20260504220004 76 157 2.6 5.2 0.00 0.00 0.00 60 1009.6
20260504215005 76 170 2.6 5.2 0.00 0.00 0.00 59 1009.8
20260504214004 76 169 2.6 4.3 0.00 0.00 0.00 58 1009.8
20260504213004 75 163 1.7 5.2 0.00 0.00 0.00 57 1010.0
20260504212004 75 165 2.6 5.2 0.00 0.00 0.00 57 1010.0
20260504211004 75 165 2.6 6.1 0.00 0.00 0.00 61 1010.1
20260504205004 74 172 2.6 5.2 0.00 0.00 0.00 65 1010.3
20260504204005 73 177 2.6 6.1 0.00 0.00 0.00 67 1010.4
20260504203004 73 174 1.7 7.0 0.00 0.00 0.00 67 1010.4
20260504201004 72 172 2.6 6.1 0.00 0.00 0.00 68 1010.2
20260504200004 72 184 2.6 5.2 0.00 0.00 0.00 70 1010.5
20260504195004 71 178 2.6 7.0 0.00 0.00 0.00 68 1010.6
20260504194004 71 181 2.6 6.1 0.00 0.00 0.00 68 1010.5
20260504192004 70 170 3.5 7.0 0.00 0.00 0.00 69 1010.7
20260504191005 70 182 2.6 5.2 0.00 0.00 0.00 70 1010.6
20260504190005 70 177 2.6 6.1 0.00 0.00 0.00 70 1010.7
20260504185004 70 169 3.5 7.8 0.00 0.00 0.00 70 1010.8
20260504184004 69 169 3.5 7.0 0.00 0.00 0.00 70 1010.8
20260504183004 68 173 2.6 5.2 0.00 0.00 0.00 73 1010.9
20260504181004 67 174 3.5 7.0 0.00 0.00 0.00 74 1010.9
20260504180004 67 171 2.6 6.1 0.00 0.00 0.00 74 1011.0
20260504175004 67 173 2.6 7.0 0.00 0.00 0.00 75 1010.9
20260504174004 66 183 2.6 4.3 0.00 0.00 0.00 74 1010.8
20260504173004 66 175 2.6 4.3 0.00 0.00 0.00 74 1010.8
20260504171004 66 183 1.7 4.3 0.00 0.00 0.00 73 1010.8